Location: Wingville
(42.9917°N, 90.4915°W)
Time: 10:23:28
(UTC+00:00)

CUBESAT XI-V - Pass Details

Date: 09 July 2022
Orbit: 668 x 690 km, 98.1° (Epoch: 14 August)

Event Time Altitude Azimuth Distance (km) Brightness Sun altitude
Exits shadow 06:07:03 - 96° (E) 2,520 ? -24.7°
Reaches altitude 10° 06:09:35 10° 69° (ENE) 2,101 ? -24.7°
Maximum altitude 06:10:24 10° 59° (ENE) 2,072 ? -24.7°
Drops below altitude 10° 06:11:13 10° 48° (NE) 2,102 ? -24.7°
Sets 06:15:31 0° 9° (N) 3,021 ? -24.6°
